Regional Weather Roundup
Issued by NWS Memphis, TN

Current Version | Previous Version | Text Only | Print | Product List | Glossary On
Versions: 1 2 3 4 5 6 7 8 9 10 11 12 13 14 15 16 17 18 19 20 21 22 23 24 25 26 27 28 29 30 31 32 33 34 35 36 37 38 39 40 41 42 43 44 45 46 47 48 49 50
000 ASUS44 KMEG 210110 RWRMEG MEMPHIS CWA HOURLY WEATHER ROUNDUP NATIONAL WEATHER SERVICE MEMPHIS TN 800 PM CDT TUE APR 20 2021 ...WEST TENNESSEE... CITY SKY/WX TMP DP RH WIND PRES REMARKS MEMPHIS INTL LGT RAIN 46 38 73 N18G29 30.05R NWS MEMPHIS N/A 47 N/A N/A MISG N/A JACKSON PTCLDY 47 35 63 NW30 30.03R COVINGTON CLOUDY 43 37 81 N20 30.07R SOMERVILLE PTCLDY 48 36 61 NW18G30 30.02R LEXINGTON MOCLDY 61 43 51 NW14G24 29.90R SELMER CLOUDY 63 45 51 NW8G21 29.91R DYERSBURG LGT RAIN 40 36 86 N12G28 30.10R WCI 33 UNION CITY CLOUDY 41 37 87 N24G30 30.06R PARIS CLOUDY 43 32 65 NW13G28 30.03R HUNTINGDON CLOUDY 46 36 66 N13G22 30.02R ...EASTERN ARKANSAS... CITY SKY/WX TMP DP RH WIND PRES REMARKS JONESBORO CLOUDY 38 34 85 N15G24 30.15R WCI 29 WEST MEMPHIS LGT RAIN 43 39 86 N16G26 30.08R BATESVILLE CLOUDY 39 31 72 N9 30.17R WCI 33 NEWPORT CLOUDY 39 32 76 N20 30.16R WCI 29 WALNUT RIDGE LGT RAIN 38 34 85 N16 30.16R WCI 29 BLYTHEVILLE N/A N/A N/A N/A MISG 30.11R SEARCY MOCLDY 42 32 67 N17G23 30.15R STUTTGART MOCLDY 46 35 65 N24 30.11R PINE BLUFF PTCLDY 52 35 52 N21G29 30.09R MONTICELLO MOCLDY 60 42 51 N13G24 30.02R ...NORTH MISSISSIPPI... CITY SKY/WX TMP DP RH WIND PRES REMARKS TUPELO CLEAR 65 45 48 CALM 29.91S OXFORD CLOUDY 63 45 51 NW18 29.97R BATESVILLE CLOUDY 55 39 54 NW24G32 29.99R TUNICA MOCLDY 45 36 70 N22G31 30.08R CLARKSDALE N/A 54 39 58 N17G25 30.05R CORINTH MOCLDY 64 41 42 SW6 29.90R GREENWOOD PTCLDY 65 47 52 SW5 29.93R COLUMBUS CLEAR 61 47 59 CALM 29.92R STARKVILLE CLEAR 63 46 55 CALM 29.96R GOLDEN TRIANGL CLEAR 68 43 40 W3 29.95R ...SOUTHEAST MISSOURI... CITY SKY/WX TMP DP RH WIND PRES REMARKS KENNETT LGT RAIN 37 37 100 N24G30 30.11R WCI 26 MALDEN LGT RAIN 36 34 93 N13 30.14R WCI 27 WEST PLAINS CLOUDY 35 31 85 NW6 30.15R WCI 30 POPLAR BLUFF FLURRIES 35 33 92 N10 30.13R WCI 27 CAPE GIRARDEAU FLURRIES 35 32 88 N14 30.12R WCI 26 ...NORTHWEST ALABAMA... CITY SKY/WX TMP DP RH WIND PRES REMARKS MUSCLE SHOALS CLEAR 67 41 38 SW6 29.90S ...MIDDLE TENNESSEE... CITY SKY/WX TMP DP RH WIND PRES REMARKS NASHVILLE MOCLDY 68 35 29 SW3 29.87R CLARKSVILLE MOCLDY 46 34 62 NW21G29 29.97R COLUMBIA PTCLDY 61 39 44 S6 29.87R LAWRENCEBURG CLEAR 63 39 42 CALM 29.90R LEWISBURG PTCLDY 61 39 44 SW5 29.88S ...WESTERN KENTUCKY... CITY SKY/WX TMP DP RH WIND PRES REMARKS PADUCAH LGT SNOW 35 32 88 N10 30.09R FOG WCI 27 FORT CAMPBELL MOCLDY 44 35 69 NW23G30 29.98R ...CENTRAL ARKANSAS... CITY SKY/WX TMP DP RH WIND PRES REMARKS LITTLE ROCK MOCLDY 44 30 57 N22G29 30.14R SKY/WX REPORTED AS FAIR MEANS FEW OR NO CLOUDS BELOW 12 THOUSAND FEET.

USA.gov is the U.S. government's official web portal to all federal, state and local government web resources and services.